Location: Unspecified
(58.9933°N, 5.6375°E)
Time: 23:36:14
(UTC+01:00)

Cosmos 2058 - Visible Passes

Search period start: 31 January 2015 00:00
Search period end: 10 February 2015 00:00
Orbit: 569 x 590 km, 82.5° (Epoch: 30 January)

Date Brightness Start Highest point End Pass type
(mag) Time Alt. Az. Time Alt. Az. Time Alt. Az.
31 Jan 5.7 18:49:47 10° W 18:51:53 13° NW 18:53:54 10° NNW visible
01 Feb 5.8 18:55:45 10° WNW 18:57:06 11° NW 18:58:19 10° NNW visible
09 Feb 5.8 17:58:48 10° WNW 17:59:47 11° NW 18:00:39 10° NNW visible
